Fort Wayne, IN

1:02 AM EST on February 21, 2018 (GMT -0500)
Fort Wayne International

Weather History for KFWA - December, 2011

Change the Weather History Date:

Tuesday, December 13, 2011

  Actual Average Record
Temperature  
Mean Temperature 33 °F 30 °F  
Max Temperature 41 °F 37 °F 63 °F (2015)
Min Temperature 24 °F 23 °F -8 °F (1958)
Degree Days  
Heating Degree Days 32 35  
Month to date heating degree days 433 431  
Since 1 July heating degree days 1499 1648  
Cooling Degree Days 0 0  
Month to date cooling degree days 0 0  
Year to date cooling degree days 1124 809  
Moisture  
Dew Point 31 °F    
Average Humidity 83    
Maximum Humidity 92    
Minimum Humidity 73    
Precipitation  
Precipitation 0.01 in 0.08 in 1.14 in (1918)
Month to date precipitation 1.12 1.19  
Year to date precipitation 46.89 36.76  
Snow  
Snow 0.00 in 0.30 in 4.10 in (2000)
Month to date snowfall 1.9 2.9  
Since 1 July snowfall 6.3 5.0  
Snow Depth 0.00 in    
Sea Level Pressure  
Sea Level Pressure 30.41 in    
Wind  
Wind Speed 2 mph (South)    
Max Wind Speed 9 mph    
Max Gust Speed 10 mph    
Visibility 7 miles    
Events Rain    
T = Trace of Precipitation, MM = Missing Value Source: NWS Daily Summary

Daily Weather History Graph

Daily Weather History Graph

Search for Another Location

Airport or City:

Trip Planner

Search our weather history database for the weather conditions in past years. The results will help you decide how hot, cold, wet, or windy it might be!

Date:

Astronomy

Dec. 13, 2011 Rise Set
Actual Time 7:56 AM EST 5:12 PM EST
Civil Twilight 7:25 AM EST 5:43 PM EST
Nautical Twilight 6:51 AM EST 6:18 PM EST
Astronomical Twilight 6:17 AM EST 6:51 PM EST
Moon 8:27 PM EST (12/13) 10:05 AM EST (12/13)
Length of Visible Light 10h 18m
Length of Day
9h 16m
Waning Gibbous, 90% of the Moon is Illuminated
Dec 13
Waning Gibbous
Dec 17
Last Quarter
Dec 24
New
Jan 1
First Quarter
Jan 9
Full

Hourly Weather History & Observations

Time (EST) Temp. Windchill Dew Point Humidity Pressure Visibility Wind Dir Wind Speed Gust Speed Precip Events Conditions
12:54 AM 27.0 °F - 23.0 °F 85% 30.45 in 10.0 mi Calm Calm - N/A   Mostly Cloudy
1:54 AM 27.0 °F - 23.0 °F 85% 30.45 in 10.0 mi Calm Calm - N/A   Mostly Cloudy
2:54 AM 24.1 °F - 21.0 °F 88% 30.46 in 10.0 mi Calm Calm - N/A   Mostly Cloudy
3:54 AM 27.0 °F - 23.0 °F 85% 30.45 in 10.0 mi Calm Calm - N/A   Mostly Cloudy
4:54 AM 28.0 °F - 25.0 °F 88% 30.45 in 10.0 mi Calm Calm - N/A   Mostly Cloudy
5:54 AM 28.0 °F - 25.0 °F 88% 30.46 in 10.0 mi Calm Calm - N/A   Mostly Cloudy
6:54 AM 28.9 °F - 27.0 °F 92% 30.46 in 8.0 mi Calm Calm - N/A   Overcast
7:54 AM 30.0 °F - 26.1 °F 85% 30.45 in 6.0 mi Calm Calm - N/A   Mostly Cloudy
8:54 AM 33.1 °F - 30.0 °F 89% 30.47 in 8.0 mi Calm Calm - N/A   Overcast
9:54 AM 34.0 °F - 30.9 °F 89% 30.48 in 8.0 mi Calm Calm - 0.00 in Rain Light Rain
10:54 AM 36.0 °F - 30.9 °F 82% 30.49 in 6.0 mi Calm Calm - 0.01 in   Haze
11:54 AM 37.0 °F 33.3 °F 33.1 °F 86% 30.48 in 7.0 mi South 4.6 mph - 0.00 in   Overcast
12:54 PM 39.9 °F 35.8 °F 33.1 °F 77% 30.44 in 7.0 mi SSW 5.8 mph - 0.00 in   Overcast
1:54 PM 39.9 °F 35.8 °F 33.1 °F 77% 30.42 in 8.0 mi SW 5.8 mph - N/A   Overcast
2:54 PM 41.0 °F - 34.0 °F 76% 30.42 in 8.0 mi Calm Calm - N/A   Overcast
3:54 PM 41.0 °F 39.0 °F 34.0 °F 76% 30.41 in 7.0 mi SSE 3.5 mph - N/A   Overcast
4:54 PM 39.9 °F 37.8 °F 35.1 °F 83% 30.41 in 7.0 mi SSE 3.5 mph - N/A   Overcast
5:54 PM 37.9 °F 34.4 °F 34.0 °F 86% 30.39 in 7.0 mi SSE 4.6 mph - N/A   Overcast
6:08 PM 39.2 °F - 33.8 °F 81% 30.36 in 6.0 mi Calm Calm - N/A   Haze
6:54 PM 37.9 °F - 34.0 °F 86% 30.40 in 6.0 mi Calm Calm - N/A   Overcast
7:54 PM 39.0 °F 36.8 °F 34.0 °F 82% 30.39 in 7.0 mi SE 3.5 mph - N/A   Overcast
8:54 PM 37.9 °F - 34.0 °F 86% 30.38 in 7.0 mi Calm Calm - N/A   Overcast
9:54 PM 37.4 °F 32.8 °F 35.6 °F 93% 30.34 in 6.0 mi South 5.8 mph - N/A   Overcast
10:28 PM 39.2 °F 37.0 °F 35.6 °F 87% 30.34 in 6.0 mi SSW 3.5 mph - N/A   Overcast
10:54 PM 37.9 °F - 35.1 °F 89% 30.35 in 5.0 mi Calm Calm - N/A   Overcast
11:10 PM 37.4 °F 33.8 °F 35.6 °F 93% 30.33 in 5.0 mi SSW 4.6 mph - N/A   Overcast
11:28 PM 37.4 °F 33.8 °F 35.6 °F 93% 30.33 in 2.0 mi SSW 4.6 mph - 0.00 in   Light Drizzle
11:46 PM 37.4 °F 34.9 °F 35.6 °F 93% 30.33 in 1.5 mi South 3.5 mph - 0.00 in   Light Drizzle
11:54 PM 37.4 °F - 35.6 °F 93% 30.32 in 1.2 mi Calm Calm - N/A   Light Drizzle